TimePDT,TemperatureF,Dew PointF,Humidity,Sea Level PressureIn,VisibilityMPH,Wind Direction,Wind SpeedMPH,Gust SpeedMPH,PrecipitationIn,Events,Conditions,WindDirDegrees,DateUTC
12:55 AM,75.0,52.0,44,29.73,10.0,Calm,Calm,-,N/A,,Clear,0,2013-07-05 07:55:00
1:55 AM,73.9,51.1,45,29.71,10.0,Calm,Calm,-,N/A,,Clear,0,2013-07-05 08:55:00
2:55 AM,73.0,48.0,41,29.71,10.0,Calm,Calm,-,N/A,,Clear,0,2013-07-05 09:55:00
3:55 AM,68.0,50.0,52,29.71,10.0,SSW,4.6,-,N/A,,Clear,200,2013-07-05 10:55:00
4:55 AM,68.0,48.9,50,29.71,10.0,Calm,Calm,-,N/A,,Clear,0,2013-07-05 11:55:00
5:55 AM,69.1,48.0,47,29.71,10.0,WNW,4.6,-,N/A,,Partly Cloudy,300,2013-07-05 12:55:00
6:55 AM,70.0,50.0,49,29.71,10.0,Calm,Calm,-,N/A,,Clear,0,2013-07-05 13:55:00
7:55 AM,73.0,52.0,48,29.72,10.0,Calm,Calm,-,N/A,,Clear,0,2013-07-05 14:55:00
8:55 AM,79.0,50.0,36,29.72,10.0,Calm,Calm,-,N/A,,Partly Cloudy,0,2013-07-05 15:55:00
9:55 AM,84.0,48.9,29,29.70,10.0,Calm,Calm,-,N/A,,Scattered Clouds,0,2013-07-05 16:55:00
10:55 AM,90.0,44.1,20,29.68,10.0,West,6.9,-,N/A,,Partly Cloudy,280,2013-07-05 17:55:00
11:55 AM,93.0,33.1,12,29.66,10.0,West,11.5,18.4,N/A,,Scattered Clouds,260,2013-07-05 18:55:00
12:55 PM,96.1,28.9,9,29.65,10.0,SSW,16.1,25.3,N/A,,Scattered Clouds,200,2013-07-05 19:55:00
1:55 PM,96.1,28.0,9,29.65,10.0,WSW,17.3,24.2,N/A,,Scattered Clouds,250,2013-07-05 20:55:00
2:55 PM,96.1,28.0,9,29.64,10.0,WSW,16.1,26.5,N/A,,Scattered Clouds,240,2013-07-05 21:55:00
3:55 PM,95.0,21.9,7,29.62,10.0,SW,18.4,33.4,N/A,,Scattered Clouds,230,2013-07-05 22:55:00
4:55 PM,95.0,25.0,8,29.62,10.0,SW,23.0,27.6,N/A,,Partly Cloudy,220,2013-07-05 23:55:00
5:55 PM,93.0,25.0,9,29.63,10.0,SW,9.2,27.6,N/A,,Partly Cloudy,230,2013-07-06 00:55:00
6:55 PM,91.0,28.0,10,29.64,10.0,SSW,11.5,-,N/A,,Partly Cloudy,200,2013-07-06 01:55:00
7:55 PM,88.0,28.0,12,29.65,10.0,SW,4.6,-,N/A,,Partly Cloudy,230,2013-07-06 02:55:00
8:55 PM,84.0,30.0,14,29.68,10.0,West,5.8,-,N/A,,Partly Cloudy,260,2013-07-06 03:55:00
9:55 PM,79.0,36.0,21,29.70,10.0,West,5.8,-,N/A,,Clear,270,2013-07-06 04:55:00
10:55 PM,77.0,37.0,24,29.70,10.0,Calm,Calm,-,N/A,,Clear,0,2013-07-06 05:55:00
11:55 PM,75.0,37.9,26,29.71,10.0,Variable,4.6,-,N/A,,Clear,0,2013-07-06 06:55:00